Date,TemperatureHighF,TemperatureAvgF,TemperatureLowF,DewpointHighF,DewpointAvgF,DewpointLowF,HumidityHigh,HumidityAvg,HumidityLow,PressureMaxIn,PressureMinIn,WindSpeedMaxMPH,WindSpeedAvgMPH,GustSpeedMaxMPH,PrecipitationSumIn
2013-2-1,35.8,26.1,18.4,19.8,12.5,7.1,80,57,38,29.73,29.20,0,0,0,0.00
2013-2-2,29.5,22.2,12.6,13.1,8.9,4.3,71,57,43,29.87,29.69,0,0,0,0.00
2013-2-3,32.2,25.4,16.9,19.4,15.3,11.1,81,66,53,29.70,29.38,0,0,0,0.00
2013-2-4,32.2,23.5,17.3,15.7,9.1,2.3,77,56,36,29.55,29.36,0,0,0,0.00
2013-2-5,31.5,19.9,8.1,13.2,6.9,0.5,74,58,41,29.69,29.55,0,0,0,0.00
2013-2-6,40.0,27.8,18.9,27.6,16.5,-1.3,82,64,40,29.97,29.58,0,0,0,0.00
2013-2-7,29.5,20.2,12.4,3.4,0.1,-2.9,52,41,29,30.19,29.96,0,0,0,0.00
2013-2-8,22.1,18.7,16.2,15.7,11.4,2.0,87,74,41,30.15,29.46,0,0,0,0.00
2013-2-9,21.8,17.5,13.3,17.1,11.0,3.0,90,76,61,29.87,29.38,0,0,0,0.02
2013-2-10,37.8,18.8,-0.4,16.9,5.5,-7.4,77,58,33,30.06,29.87,0,0,0,0.05
2013-2-11,28.8,21.2,9.9,26.3,16.3,2.3,90,81,69,30.00,29.28,0,0,0,0.00
2013-2-12,46.3,36.0,28.3,33.9,29.0,25.7,92,77,54,29.50,29.25,0,0,0,0.18
2013-2-13,46.4,35.1,26.8,29.4,24.8,20.3,80,67,46,29.52,29.40,0,0,0,0.00
2013-2-14,45.2,32.5,24.8,28.4,22.7,18.8,83,68,45,29.64,29.38,0,0,0,0.00
2013-2-15,54.9,34.3,19.8,37.4,24.9,15.1,85,70,44,29.64,29.54,0,0,0,0.01
2013-2-16,46.3,34.4,27.0,31.9,23.8,10.5,86,66,48,29.63,29.42,0,0,0,0.02
2013-2-17,27.0,20.4,14.8,14.0,7.7,2.6,83,58,46,29.43,29.07,0,0,0,0.00
2013-2-18,32.8,21.2,12.6,7.4,2.4,-0.6,63,46,27,29.77,29.32,0,0,0,0.00
2013-2-19,43.6,29.5,13.1,32.4,17.2,0.9,89,62,36,29.81,29.22,0,0,0,0.10
2013-2-20,36.2,31.2,24.8,32.4,22.2,15.3,92,70,55,29.41,29.17,0,0,0,0.02
2013-2-21,30.8,24.4,20.0,16.0,13.5,9.8,75,63,50,29.89,29.41,0,0,0,0.00
2013-2-22,44.8,30.0,14.0,28.3,19.1,9.7,87,66,40,30.06,29.88,0,0,0,0.00
2013-2-23,36.9,33.0,29.2,31.8,28.1,22.1,92,82,71,29.99,29.62,0,0,0,0.02
2013-2-24,38.0,33.5,31.3,34.8,31.3,29.1,94,91,86,29.62,29.41,0,0,0,0.06
2013-2-25,45.0,34.2,27.9,39.9,31.3,25.7,93,89,78,29.90,29.56,0,0,0,0.24
2013-2-26,43.9,35.3,31.3,37.5,31.5,29.3,94,86,71,30.01,29.86,0,0,0,0.11
2013-2-27,38.0,34.2,32.0,35.9,32.0,29.1,94,92,84,29.86,29.30,0,0,0,0.29
2013-2-28,46.4,37.3,32.0,40.8,34.0,30.2,94,88,76,29.30,29.21,0,0,0,0.12